This is the latest recevied weather packets stored in our database for station/object M0JUI-1. If no packets are shown the sender has not sent any weather packets the latest 10 day(s).
| Time | Temp. | Humidity | Pressure | Rain* | Wind** | Luminosity | Snow |
|---|---|---|---|---|---|---|---|
| 1788361785 | 17.22° C | 13% | 1013.7 hPa | 0 mm | - | 65 W/m² | - |
| 1788361485 | 17.22° C | 14% | 1013.9 hPa | 0 mm | - | 74 W/m² | - |
| 1788361185 | 17.22° C | 15% | 1014 hPa | 0 mm | - | 153 W/m² | - |
| 1788360885 | 16.67° C | 15% | 1013.9 hPa | 0 mm | - | 122 W/m² | - |
| 1788360585 | 16.67° C | 16% | 1014 hPa | 0 mm | - | 163 W/m² | - |
| 1788360285 | 16.67° C | 16% | 1014 hPa | 0 mm | - | 75 W/m² | - |
| 1788359985 | 16.67° C | 16% | 1014 hPa | 0 mm | - | 100 W/m² | - |
| 1788359685 | 16.67° C | 16% | 1013.9 hPa | 0 mm | - | 79 W/m² | - |
| 1788359385 | 16.67° C | 16% | 1014.3 hPa | 0 mm | - | 97 W/m² | - |
| 1788359085 | 16.67° C | 16% | 1014.3 hPa | 0 mm | - | 90 W/m² | - |
| 1788358785 | 16.67° C | 16% | 1014.4 hPa | 0 mm | - | 94 W/m² | - |
| 1788358485 | 16.11° C | 16% | 1014.3 hPa | 0 mm | - | 97 W/m² | - |
| 1788358185 | 16.11° C | 15% | 1014.5 hPa | 0 mm | - | 85 W/m² | - |
| 1788357886 | 16.11° C | 15% | 1014.6 hPa | 0 mm | - | 112 W/m² | - |
| 1788357574 | 16.11° C | 15% | 1014.5 hPa | 0 mm | - | 96 W/m² | - |
| 1788357273 | 16.11° C | 15% | 1014.6 hPa | 0 mm | - | 94 W/m² | - |
| 1788356973 | 16.11° C | 15% | 1014.8 hPa | 0 mm | - | 69 W/m² | - |
| 1788356661 | 16.11° C | 14% | 1014.7 hPa | 0 mm | - | 86 W/m² | - |
| 1788356361 | 16.11° C | 14% | 1014.7 hPa | 0 mm | - | 91 W/m² | - |
| 1788356061 | 16.11° C | 14% | 1014.9 hPa | 0 mm | - | 74 W/m² | - |
| 1788355749 | 16.11° C | 14% | 1014.9 hPa | 0 mm | - | 83 W/m² | - |
| 1788355450 | 16.11° C | 13% | 1015 hPa | 0.25 mm | - | 77 W/m² | - |
| 1788355149 | 16.11° C | 13% | 1014.9 hPa | 0.51 mm | - | 106 W/m² | - |
| 1788354837 | 16.11° C | 13% | 1015.1 hPa | 0.76 mm | - | 141 W/m² | - |
| 1788354537 | 16.11° C | 12% | 1015.3 hPa | 0.76 mm | - | 133 W/m² | - |
* Rain latest hour (hover to see other rain measurements)
** Current wind speed in m/s (hover to see current wind gust speed)